[Iaude] MPEC V77: 2023 VE2 [a=1.35,e=0.30,i=4.7,H=27.8]
    mpec at marsden.cfa.harvard.edu 
    mpec at marsden.cfa.harvard.edu
       
    Mon Nov  6 18:29:52 EST 2023
    
    
  
M.P.E.C. 2023-V77                              Issued 2023 November 6, 23:28 UT
     The Minor Planet Electronic Circulars contain information on unusual
         minor planets, routine data on comets and natural satellites,
         and occasional editorial announcements.  They are published
    on behalf of Division F of the International Astronomical Union by the
          Minor Planet Center, Smithsonian Astrophysical Observatory,
                          Cambridge, MA 02138, U.S.A.
			  
             Prepared using the Tamkin Foundation Computer Network
                              MPC at CFA.HARVARD.EDU
            URL https://www.minorplanetcenter.net/    ISSN 1523-6714
                                    2023 VE2                                    
Observations:
     K23V02E*1C2023 11 05.37492203 39 36.281+09 23 02.18         19.92GVEV077G96
     K23V02E 1C2023 11 05.38012203 39 36.040+09 24 32.51         20.19GVEV077G96
     K23V02E 1C2023 11 05.38533603 39 35.824+09 26 01.10         20.70GVEV077G96
     K23V02E 1C2023 11 05.39052403 39 35.615+09 27 30.10         20.29GVEV077G96
     K23V02E KC2023 11 05.44670703 39 33.950+09 43 24.80         20.32GVEV077I52
     K23V02E KC2023 11 05.44735603 39 33.950+09 43 36.20               VEV077I52
     K23V02E KC2023 11 05.50872003 39 33.850+10 00 37.10         21.19GVEV077I52
     K23V02E KC2023 11 05.50936803 39 33.890+10 00 47.70               VEV077I52
     K23V02E KC2023 11 05.51002203 39 33.870+10 00 59.10               VEV077I52
     K23V02E KC2023 11 05.51067603 39 33.910+10 01 10.00         21.01GVEV077I52
     K23V02E KC2023 11 06.02770503 40 22.51 +12 16 19.3          20.9 GVEV077L06
     K23V02E KC2023 11 06.03114203 40 22.42 +12 17 09.6          20.8 GVEV077L06
     K23V02E IC2023 11 06.09451103 40 19.95 +12 32 36.5          20.8 GVEV077L01
     K23V02E IC2023 11 06.09648803 40 19.93 +12 33 03.8          20.7 GVEV077L01
     K23V02E KC2023 11 06.09846503 40 19.88 +12 33 32.4          20.7 GVEV077L01
     K23V02E KC2023 11 06.10153003 40 19.85 +12 34 16.6          20.9 GVEV077L01
     K23V02E KC2023 11 06.25413803 40 46.841+13 11 44.74         21.11GVEV077I52
     K23V02E KC2023 11 06.25500703 40 46.844+13 11 57.55         20.19GVEV077I52
     K23V02E KC2023 11 06.25586903 40 46.798+13 12 10.15         20.57GVEV077I52
     K23V02E KC2023 11 06.25672503 40 46.751+13 12 21.92         21.67GVEV077I52
Observer details:
G96 Mt. Lemmon Survey.  Observer J. B. Fazekas.  Measurers E. C. Beshore, D.
    Fay, J. B. Fazekas, D. C. Fuls, A. R. Gibbs, A. D. Grauer, H. Groeller, J.
    K. Hogan, R. A. Kowalski, S. M. Larson, G. J. Leonard, D. Rankin, R. L.
    Seaman, F. C. Shelly, K. W. Wierzchos.  1.5-m reflector + 10K CCD.
I52 Steward Observatory, Mt. Lemmon Station.  Observer R. A. Kowalski.
    Measurers E. C. Beshore, D. Fay, J. B. Fazekas, D. C. Fuls, A. R. Gibbs,
    A. D. Grauer, H. Groeller, J. K. Hogan, R. A. Kowalski, S. M. Larson, G.
    J. Leonard, D. Rankin, R. L. Seaman, F. C. Shelly, K. W. Wierzchos.  1.0-m
    prime focus + CCD.
L01 Visnjan Observatory, Tican.  Observer K. Korlevic.  1.0-m f/2.9 reflector
    + CCD.
L06 Sormano 2 Observatory, Bellagio Via Lattea.  Observer G. Ventre.  Measurer
    P. Sicoli.  0.36m Schmidt Cassegrain + CCD.
Orbital elements:
2023 VE2                                                 Earth MOID = 0.0149 AU
Epoch 2023 Sept. 13.0 TT = JDT 2460200.5                Veres                   
M 350.39632              (2000.0)            P               Q                  
n   0.62544219     Peri.  312.76278     +0.99798863     +0.02364052             
a   1.3541848      Node    45.97636     +0.00526953     +0.89371616             
e   0.2970087      Incl.    4.69217     -0.06317374     +0.44800955             
P   1.58           H   27.88          G   0.15           U   7                  
Residuals in seconds of arc
231105 G96  0.3+  0.2-    231105 I52  0.2-  0.3-    231106 L01  0.2-  0.2-
231105 G96  0.1-  0.6+    231105 I52  0.6-  0.4+    231106 L01  0.2-  0.1-
231105 G96  0.2-  0.5-    231105 I52  0.2-  0.5+    231106 I52  0.3-  0.4-
231105 G96  0.3-  0.6-    231106 L06  0.2+  0.1-    231106 I52  0.2+  0.0
231105 I52  0.5-  0.0     231106 L06  0.4+  0.5-    231106 I52  0.0   0.4+
231105 I52  0.3-  0.5+    231106 L01  0.2+  0.8+    231106 I52  0.2-  0.0
231105 I52  0.6-  0.2-    231106 L01  0.2+  0.3-
Ephemeris:
2023 VE2                 a,e,i = 1.35, 0.30, 5                   q = 0.9520
Date    TT    R. A. (2000) Decl.     Delta      r    Elong.  Phase     V
2023 10 07    15 49 25.7 -51 06 02   0.09295 0.9556    59.3   115.9    27.2
...
2023 10 22    16 15 34.0 -67 02 43   0.03720 0.9783    61.7   116.4    25.3
...
2023 10 30    03 12 00.4 -57 12 03   0.01540 0.9982   108.3    70.9    21.3
...
2023 11 05    03 39 11.5 +07 31 54   0.02537 1.0160   163.1    16.5    20.8
2023 11 06    03 40 22.9 +12 12 05   0.02864 1.0192   165.4    14.2    21.0
2023 11 07    03 41 17.9 +15 53 49   0.03207 1.0225   166.7    12.9    21.2
...
2023 11 13    03 43 43.9 +27 35 33   0.05456 1.0431   167.5    11.9    22.4
...
2023 11 21    03 44 07.9 +32 59 13   0.08758 1.0735   166.7    12.2    23.5
...
2023 12 06    03 45 46.2 +35 29 11   0.1583  1.1365   161.3    16.2    25.0
M. P. C. Staff               (C) Copyright 2023 MPC           M.P.E.C. 2023-V77
    
    
More information about the Iaude
mailing list